Weather History for New Bedford, MA

Change the Weather History Date:

Sunday, December 2, 2012

  Actual Average Record
Temperature  
Mean Temperature 48 °F -  
Max Temperature 60 °F 46 °F 61 °F (1982)
Min Temperature 37 °F 32 °F 6 °F (1989)
Degree Days  
Heating Degree Days 16    
Moisture  
Dew Point 45 °F    
Average Humidity 85    
Maximum Humidity 100    
Minimum Humidity 63    
Precipitation  
Precipitation 0.01 in - - ()
Sea Level Pressure  
Sea Level Pressure 30.29 in    
Wind  
Wind Speed 4 mph (SSW)    
Max Wind Speed 16 mph    
Max Gust Speed 24 mph    
Visibility 8 miles    
Events Rain    
Averages and records for this station are not official NWS values.
T = Trace of Precipitation, MM = Missing Value Source: NWS Daily Summary

Daily Weather History Graph

Daily Weather History Graph

Search for Another Location

Airport:

Trip Planner

Search our weather history database for the weather conditions in past years. The results will help you decide how hot, cold, wet, or windy it might be!

Date:

Astronomy

Dec. 02, 2012 Rise Set
Actual Time 6:52 AM EST 4:13 PM EST
Civil Twilight 6:21 AM EST 4:44 PM EST
Nautical Twilight 5:47 AM EST 5:19 PM EST
Astronomical Twilight 5:13 AM EST 5:53 PM EST
Moon 7:59 PM EST (12/2) 9:39 AM EST (12/2)
Length of Visible Light 10h 23m
Length of Day
9h 21m
Waning Gibbous, 86% of the Moon is Illuminated
Dec 2
Waning Gibbous
Dec 6
Last Quarter
Dec 13
New
Dec 20
First Quarter
Dec 28
Full

Hourly Weather History & Observations

Time (EST) Temp. Windchill Dew Point Humidity Pressure Visibility Wind Dir Wind Speed Gust Speed Precip Events Conditions
12:00 AM 37.4 °F - 37.4 °F 100% 30.47 in 4.0 mi Calm Calm - N/A   Mostly Cloudy
12:30 AM 39.2 °F - 37.4 °F 93% 30.45 in 4.0 mi Calm Calm - N/A   Overcast
12:37 AM 39.2 °F - 37.4 °F 93% 30.45 in 4.0 mi Calm Calm - N/A   Overcast
12:53 AM 39.0 °F - 37.0 °F 93% 30.45 in 5.0 mi Calm Calm - N/A   Overcast
1:45 AM 39.2 °F 37.0 °F 37.4 °F 93% 30.45 in 4.0 mi North 3.5 mph - N/A   Overcast
1:53 AM 39.2 °F - 37.4 °F 93% 30.45 in 5.0 mi Calm Calm - N/A   Overcast
2:04 AM 39.2 °F - 37.4 °F 93% 30.45 in 5.0 mi Calm Calm - N/A   Overcast
2:46 AM 39.2 °F - 37.4 °F 93% 30.42 in 5.0 mi Calm Calm - N/A   Overcast
2:53 AM 39.9 °F - 37.9 °F 93% 30.43 in 5.0 mi Calm Calm - N/A   Overcast
3:19 AM 39.2 °F - 37.4 °F 93% 30.41 in 4.0 mi Calm Calm - N/A   Mostly Cloudy
3:48 AM 39.2 °F 35.9 °F 37.4 °F 93% 30.41 in 6.0 mi North 4.6 mph - N/A   Overcast
3:53 AM 41.0 °F 38.0 °F 39.0 °F 93% 30.41 in 6.0 mi North 4.6 mph - 0.00 in Rain Light Rain
4:53 AM 43.0 °F 41.3 °F 39.9 °F 89% 30.40 in 7.0 mi North 3.5 mph - 0.00 in   Overcast
5:53 AM 42.1 °F 40.2 °F 39.9 °F 92% 30.38 in 5.0 mi WNW 3.5 mph - 0.00 in Rain Light Rain
6:02 AM 42.8 °F 40.1 °F 39.2 °F 87% 30.37 in 6.0 mi East 4.6 mph - 0.00 in Rain Light Rain
6:09 AM 44.6 °F 42.2 °F 42.8 °F 93% 30.37 in 7.0 mi SE 4.6 mph - 0.00 in Rain Light Rain
6:53 AM 50.0 °F - 46.9 °F 89% 30.36 in 9.0 mi Variable 3.5 mph - 0.00 in   Overcast
7:13 AM 50.0 °F - 46.4 °F 87% 30.37 in 8.0 mi Calm Calm - 0.00 in   Overcast
7:21 AM 50.0 °F - 48.2 °F 94% 30.36 in 7.0 mi South 4.6 mph - 0.00 in   Overcast
7:53 AM 52.0 °F - 48.9 °F 89% 30.36 in 7.0 mi South 4.6 mph - 0.00 in   Overcast
8:15 AM 51.8 °F - 48.2 °F 88% 30.36 in 7.0 mi South 4.6 mph - N/A   Overcast
8:34 AM 53.6 °F - 50.0 °F 88% 30.36 in 7.0 mi South 5.8 mph - N/A   Overcast
8:51 AM 53.6 °F - 51.8 °F 94% 30.35 in 7.0 mi South 9.2 mph - N/A   Mostly Cloudy
8:53 AM 54.0 °F - 51.1 °F 90% 30.35 in 7.0 mi South 9.2 mph - N/A   Mostly Cloudy
9:53 AM 57.0 °F - 51.1 °F 81% 30.32 in 10.0 mi South 4.6 mph - N/A   Clear
10:53 AM 57.9 °F - 48.9 °F 72% 30.30 in 10.0 mi South 8.1 mph - N/A   Clear
11:53 AM 57.9 °F - 48.0 °F 70% 30.27 in 10.0 mi SSW 12.7 mph - N/A   Mostly Cloudy
12:37 PM 60.8 °F - 48.2 °F 63% 30.24 in 10.0 mi South 8.1 mph - N/A   Mostly Cloudy
12:53 PM 59.0 °F - 48.9 °F 69% 30.23 in 10.0 mi South 8.1 mph - N/A   Overcast
1:50 PM 55.4 °F - 48.2 °F 77% 30.20 in 8.0 mi SSW 6.9 mph - 0.00 in Rain Light Rain
1:53 PM 55.9 °F - 48.9 °F 77% 30.20 in 7.0 mi SSW 8.1 mph - 0.01 in Rain Light Rain
2:17 PM 55.4 °F - 50.0 °F 82% 30.19 in 10.0 mi South 6.9 mph - 0.00 in   Mostly Cloudy
2:40 PM 55.4 °F - 50.0 °F 82% 30.18 in 10.0 mi SSW 8.1 mph - 0.00 in   Mostly Cloudy
2:53 PM 55.0 °F - 50.0 °F 83% 30.19 in 5.0 mi WSW 9.2 mph - 0.00 in Rain Light Rain
3:51 PM 55.4 °F - 51.8 °F 88% 30.16 in 10.0 mi SSW 9.2 mph - 0.00 in   Mostly Cloudy
3:53 PM 55.0 °F - 51.1 °F 86% 30.17 in 10.0 mi SSW 8.1 mph - 0.00 in   Scattered Clouds
4:53 PM 54.0 °F - 51.1 °F 90% 30.16 in 10.0 mi SSW 9.2 mph - N/A   Mostly Cloudy
5:53 PM 53.1 °F - 44.1 °F 71% 30.15 in 10.0 mi SW 10.4 mph - N/A   Mostly Cloudy
6:00 PM 53.6 °F - 42.8 °F 67% 30.15 in 10.0 mi SW 12.7 mph - N/A   Mostly Cloudy
6:53 PM 51.1 °F - 42.1 °F 71% 30.14 in 10.0 mi SSW 10.4 mph - N/A   Mostly Cloudy
7:53 PM 50.0 °F - 45.0 °F 83% 30.13 in 10.0 mi SSW 6.9 mph - N/A   Scattered Clouds
8:53 PM 52.0 °F - 48.0 °F 86% 30.12 in 9.0 mi SSW 8.1 mph - N/A   Clear
9:53 PM 54.0 °F - 48.9 °F 83% 30.11 in 8.0 mi SSW 10.4 mph - N/A   Overcast
10:53 PM 55.0 °F - 48.9 °F 80% 30.09 in 9.0 mi SW 12.7 mph 23.0 mph 0.00 in Rain Light Rain
11:49 PM 55.4 °F - 48.2 °F 77% 30.07 in 9.0 mi SW 15.0 mph 21.9 mph 0.00 in   Mostly Cloudy
11:53 PM 55.0 °F - 48.9 °F 80% 30.07 in 9.0 mi SW 16.1 mph 24.2 mph 0.00 in   Mostly Cloudy